TimeCET,TemperatureF,Dew PointF,Humidity,Sea Level PressureIn,VisibilityMPH,Wind Direction,Wind SpeedMPH,Gust SpeedMPH,PrecipitationIn,Events,Conditions,WindDirDegrees,DateUTC
12:15 AM,32.0,32.0,100,29.83,1.9,North,4.5,-,N/A,Rain-Snow,Rain,360,2012-10-28 23:15:00
12:45 AM,32.0,32.0,100,29.83,1.9,North,4.5,-,N/A,Rain-Snow,Rain,350,2012-10-28 23:45:00
1:00 AM,-9999,-9999,N/A,-9999,6.2,North,-9999.0,-,N/A,,Overcast,0,2012-10-29 00:00:00
1:15 AM,32.0,32.0,100,29.83,1.9,NW,2.2,-,N/A,Rain-Snow,Rain,310,2012-10-29 00:15:00
1:45 AM,32.0,32.0,100,29.86,1.9,NW,2.2,-,N/A,Rain-Snow,Rain,310,2012-10-29 00:45:00
2:00 AM,-9999,-9999,N/A,-9999,6.2,NNW,8.9,-,N/A,,Overcast,340,2012-10-29 01:00:00
2:02 AM,32.0,32.0,100,29.83,0.9,NNW,4.5,-,N/A,Rain-Snow,Rain,330,2012-10-29 01:02:00
2:15 AM,32.0,32.0,100,29.83,0.9,NNW,6.7,-,N/A,Snow,Light Snow,330,2012-10-29 01:15:00
2:45 AM,32.0,32.0,100,29.83,0.7,NNW,6.7,-,N/A,Snow,Light Snow,330,2012-10-29 01:45:00
3:15 AM,32.0,32.0,100,29.83,0.7,NNW,6.7,-,N/A,Snow,Light Snow,330,2012-10-29 02:15:00
3:45 AM,32.0,32.0,100,29.83,0.7,NNW,6.7,-,N/A,Snow,Snow,330,2012-10-29 02:45:00
4:15 AM,32.0,32.0,100,29.83,0.7,NNW,6.7,-,N/A,Snow,Snow,330,2012-10-29 03:15:00
4:45 AM,32.0,32.0,100,29.86,0.7,NNW,6.7,-,N/A,Snow,Snow,330,2012-10-29 03:45:00
5:13 AM,32.0,32.0,100,29.83,0.7,NNW,6.7,-,N/A,Snow,Snow,330,2012-10-29 04:13:00
5:15 AM,32.0,32.0,100,29.83,0.7,NNW,6.7,-,N/A,Snow,Snow,330,2012-10-29 04:15:00
5:45 AM,-9999,-9999,N/A,-9999,1.9,NNW,8.9,-,N/A,Rain,Light Rain,340,2012-10-29 04:45:00
6:15 AM,32.0,32.0,100,29.83,0.7,NNW,8.9,-,N/A,Snow,Snow,340,2012-10-29 05:15:00
6:45 AM,32.0,32.0,100,29.86,0.7,NNW,8.9,-,N/A,Snow,Light Snow,340,2012-10-29 05:45:00
7:15 AM,32.0,32.0,100,29.86,0.7,NW,6.7,-,N/A,Snow,Light Snow,320,2012-10-29 06:15:00
7:24 AM,32.0,32.0,100,29.86,0.9,NNW,6.7,-,N/A,Snow,Light Snow,330,2012-10-29 06:24:00
7:45 AM,32.0,32.0,100,29.86,0.9,NW,6.7,-,N/A,Snow,Light Snow,320,2012-10-29 06:45:00
8:08 AM,32.0,32.0,100,29.86,1.9,NNW,6.7,-,N/A,Snow,Light Snow,330,2012-10-29 07:08:00
8:15 AM,32.0,32.0,100,29.86,1.9,NNW,6.7,-,N/A,Snow,Light Snow,330,2012-10-29 07:15:00
8:45 AM,-9999,-9999,N/A,-9999,3.1,NNW,8.9,-,N/A,,Mostly Cloudy,340,2012-10-29 07:45:00
9:14 AM,32.0,32.0,100,29.86,3.1,NW,8.9,-,N/A,,Overcast,320,2012-10-29 08:14:00
9:15 AM,32.0,32.0,100,29.86,3.1,NW,8.9,-,N/A,,Overcast,320,2012-10-29 08:15:00
9:23 AM,32.0,32.0,100,29.86,3.1,NW,8.9,-,N/A,,Overcast,320,2012-10-29 08:23:00
9:45 AM,32.0,32.0,100,29.86,3.7,NW,8.9,-,N/A,,Overcast,320,2012-10-29 08:45:00
10:15 AM,33.8,33.8,100,29.89,3.7,NW,8.9,-,N/A,,Overcast,320,2012-10-29 09:15:00
10:45 AM,33.8,32.0,93,29.89,4.3,NW,8.9,-,N/A,,Overcast,320,2012-10-29 09:45:00
11:15 AM,33.8,32.0,93,29.86,5.0,NW,11.2,-,N/A,,Overcast,320,2012-10-29 10:15:00
11:45 AM,-9999,-9999,N/A,-9999,5.0,NNW,8.9,-,N/A,,Overcast,330,2012-10-29 10:45:00
12:15 PM,33.8,32.0,93,29.86,5.0,NW,13.4,24.6,N/A,,Overcast,320,2012-10-29 11:15:00
12:45 PM,33.8,32.0,93,29.86,5.0,NNW,11.2,22.4,N/A,,Overcast,330,2012-10-29 11:45:00
1:15 PM,33.8,32.0,93,29.86,5.0,NNW,11.2,22.4,N/A,,Overcast,330,2012-10-29 12:15:00
1:45 PM,33.8,32.0,93,29.86,6.2,NNW,11.2,22.4,N/A,,Overcast,330,2012-10-29 12:45:00
2:02 PM,33.8,32.0,93,29.86,6.2,NNW,15.7,31.3,N/A,,Mostly Cloudy,330,2012-10-29 13:02:00
2:15 PM,33.8,32.0,93,29.86,6.2,NNW,20.1,-,N/A,,Mostly Cloudy,330,2012-10-29 13:15:00
2:45 PM,-9999,-9999,N/A,-9999,6.2,NNW,8.9,-,N/A,,Mostly Cloudy,330,2012-10-29 13:45:00
3:15 PM,35.6,32.0,87,29.86,6.2,NNW,17.9,-,N/A,,Mostly Cloudy,330,2012-10-29 14:15:00
3:45 PM,35.6,32.0,87,29.86,6.2,NNW,15.7,-,N/A,,Mostly Cloudy,330,2012-10-29 14:45:00
4:15 PM,35.6,30.2,81,29.86,6.2,NNW,17.9,-,N/A,,Mostly Cloudy,340,2012-10-29 15:15:00
4:45 PM,35.6,30.2,81,29.86,6.2,NNW,15.7,-,N/A,,Mostly Cloudy,340,2012-10-29 15:45:00
5:15 PM,33.8,30.2,87,29.86,6.2,NNW,11.2,-,N/A,,Mostly Cloudy,340,2012-10-29 16:15:00
5:45 PM,-9999,-9999,N/A,-9999,6.2,NNW,8.9,-,N/A,,Clear,330,2012-10-29 16:45:00
6:15 PM,35.6,30.2,81,29.89,6.2,NNW,13.4,-,N/A,,Mostly Cloudy,340,2012-10-29 17:15:00
6:45 PM,35.6,30.2,81,29.89,6.2,NNW,13.4,-,N/A,,Mostly Cloudy,340,2012-10-29 17:45:00
7:15 PM,35.6,30.2,81,29.89,6.2,North,13.4,-,N/A,,Mostly Cloudy,350,2012-10-29 18:15:00
7:45 PM,33.8,30.2,87,29.89,6.2,NNW,13.4,-,N/A,,Mostly Cloudy,340,2012-10-29 18:45:00
8:15 PM,33.8,30.2,87,29.89,6.2,NNW,8.9,-,N/A,,Mostly Cloudy,340,2012-10-29 19:15:00
8:45 PM,-9999,-9999,N/A,-9999,3.1,NNW,6.7,-,N/A,,Clear,330,2012-10-29 19:45:00
9:15 PM,33.8,32.0,93,29.89,6.2,NNW,4.5,-,N/A,,Scattered Clouds,340,2012-10-29 20:15:00
9:45 PM,33.8,32.0,93,29.89,6.2,NNW,4.5,-,N/A,,Scattered Clouds,340,2012-10-29 20:45:00
10:15 PM,35.6,32.0,87,29.89,6.2,NNW,8.9,-,N/A,,Scattered Clouds,340,2012-10-29 21:15:00
10:45 PM,35.6,32.0,87,29.89,6.2,NNW,8.9,-,N/A,,Scattered Clouds,340,2012-10-29 21:45:00
11:15 PM,33.8,32.0,93,29.89,6.2,NNW,6.7,-,N/A,,Scattered Clouds,330,2012-10-29 22:15:00
11:45 PM,-9999,-9999,N/A,-9999,3.1,North,-9999.0,-,N/A,,Scattered Clouds,0,2012-10-29 22:45:00